{"data":{"norad_id":56001,"epoch":"2026-09-19T17:00:08.764128Z","epoch_age_seconds":174597,"freshness":"STALE","line1":"1 56001U 23042R   26262.70843477 -.00000104  00000+0  57288-5 0  9991","line2":"2 56001  43.0033  48.0276 0000770 258.0536 102.0229 15.27579386192491","mean_motion":15.27579386,"eccentricity":7.7e-5,"inclination_deg":43.0033,"raan_deg":48.0276,"arg_perigee_deg":258.0536,"mean_anomaly_deg":102.0229,"bstar":5.7288e-6,"rev_number":19249,"period_min":94.266786603521,"perigee_km":482.52262310619,"apogee_km":483.57924604812,"semimajor_km":6861.1879345772,"source":"CELESTRAK","updated_at":"2026-09-21T09:00:33.351961Z"}}